This is the latest recevied weather packets stored in our database for station/object F5PQL-4. If no packets are shown the sender has not sent any weather packets the latest 10 day(s).
| Time | Temp. | Humidity | Pressure | Rain* | Wind** | Luminosity | Snow |
|---|---|---|---|---|---|---|---|
| 1778109693 | 13.89° C | 65% | 1014.2 hPa | - | - | - | - |
| 1778108793 | 13.89° C | 65% | 1014.3 hPa | - | - | - | - |
| 1778107893 | 13.89° C | 65% | 1014.1 hPa | - | - | - | - |
| 1778106993 | 13.33° C | 66% | 1014.1 hPa | - | - | - | - |
| 1778106093 | 13.33° C | 66% | 1014.2 hPa | - | - | - | - |
| 1778105193 | 13.89° C | 65% | 1014.1 hPa | - | - | - | - |
| 1778104293 | 14.44° C | 64% | 1014 hPa | - | - | - | - |
| 1778103392 | 14.44° C | 63% | 1013.9 hPa | - | - | - | - |
| 1778102492 | 14.44° C | 62% | 1013.8 hPa | - | - | - | - |
| 1778101592 | 15° C | 61% | 1013.8 hPa | - | - | - | - |
| 1778100692 | 15° C | 60% | 1013.8 hPa | - | - | - | - |
| 1778099792 | 15° C | 60% | 1013.7 hPa | - | - | - | - |
| 1778098892 | 15° C | 59% | 1013.3 hPa | - | - | - | - |
| 1778097992 | 15° C | 59% | 1013.1 hPa | - | - | - | - |
| 1778097092 | 15.56° C | 59% | 1013 hPa | - | - | - | - |
| 1778096192 | 15.56° C | 59% | 1012.8 hPa | - | - | - | - |
| 1778095292 | 16.11° C | 57% | 1012.8 hPa | - | - | - | - |
| 1778094391 | 16.11° C | 56% | 1012.7 hPa | - | - | - | - |
| 1778093491 | 16.67° C | 57% | 1012.4 hPa | - | - | - | - |
| 1778092591 | 17.22° C | 55% | 1011.9 hPa | - | - | - | - |
| 1778091691 | 17.22° C | 55% | 1011.7 hPa | - | - | - | - |
| 1778090795 | 17.22° C | 55% | 1011.7 hPa | - | - | - | - |
| 1778089895 | 17.78° C | 52% | 1011.5 hPa | - | - | - | - |
| 1778088995 | 18.33° C | 51% | 1011.4 hPa | - | - | - | - |
| 1778088095 | 18.89° C | 49% | 1011.3 hPa | - | - | - | - |
* Rain since midnight (hover to see other rain measurements)
** Current wind speed in m/s (hover to see current wind gust speed)